| time (UTC) | temp C | wind direction | speed KPH | gust KPH | rain 1hr cm | rain 24hr cm | rain mn cm | humidity % | barometer mb |
| 20260507051035 | 7 | 280 | 6.4 | 17.7 | 0.00 | 0.00 | 0.00 | 70 | 1007.8 |
| 20260507050535 | 7 | 277 | 6.4 | 17.7 | 0.00 | 0.00 | 0.00 | 70 | 1007.7 |
| 20260507050050 | 8 | 226 | 4.8 | 17.7 | 0.00 | 0.00 | 0.00 | 71 | 1007.6 |
| 20260507045540 | 8 | 265 | 4.8 | 17.7 | 0.00 | 0.00 | 0.00 | 71 | 1007.6 |
| 20260507045034 | 8 | 241 | 4.8 | 14.5 | 0.00 | 0.00 | 0.00 | 71 | 1007.7 |
| 20260507044559 | 8 | 261 | 3.2 | 17.7 | 0.00 | 0.00 | 0.00 | 71 | 1007.7 |
| 20260507044039 | 8 | 233 | 1.6 | 17.7 | 0.00 | 0.00 | 0.00 | 71 | 1007.7 |
| 20260507043538 | 8 | 253 | 4.8 | 16.1 | 0.00 | 0.00 | 0.00 | 71 | 1007.7 |
| 20260507043059 | 8 | 261 | 4.8 | 16.1 | 0.00 | 0.00 | 0.00 | 72 | 1007.8 |
| 20260507042538 | 8 | 241 | 4.8 | 16.1 | 0.00 | 0.00 | 0.00 | 72 | 1007.8 |
| 20260507042041 | 8 | 276 | 3.2 | 16.1 | 0.00 | 0.00 | 0.00 | 72 | 1007.8 |
| 20260507041556 | 8 | 236 | 4.8 | 16.1 | 0.00 | 0.00 | 0.00 | 73 | 1007.8 |
| 20260507041038 | 8 | 221 | 3.2 | 17.7 | 0.00 | 0.00 | 0.00 | 73 | 1007.8 |
| 20260507040538 | 8 | 207 | 8.0 | 17.7 | 0.00 | 0.00 | 0.00 | 73 | 1007.8 |
| 20260507040051 | 8 | 220 | 4.8 | 14.5 | 0.00 | 0.00 | 0.00 | 73 | 1007.9 |
| 20260507035537 | 9 | 219 | 6.4 | 14.5 | 0.00 | 0.00 | 0.00 | 73 | 1008.0 |
| 20260507035036 | 9 | 238 | 6.4 | 14.5 | 0.00 | 0.00 | 0.00 | 73 | 1007.9 |
| 20260507034547 | 9 | 228 | 4.8 | 14.5 | 0.00 | 0.00 | 0.00 | 73 | 1008.0 |
| 20260507034036 | 9 | 234 | 3.2 | 17.7 | 0.00 | 0.00 | 0.00 | 73 | 1007.9 |
| 20260507033539 | 9 | 230 | 4.8 | 17.7 | 0.00 | 0.00 | 0.00 | 73 | 1008.1 |
| 20260507033055 | 9 | 236 | 3.2 | 12.9 | 0.00 | 0.00 | 0.00 | 73 | 1008.0 |
| 20260507032539 | 9 | 219 | 6.4 | 12.9 | 0.00 | 0.00 | 0.00 | 74 | 1008.0 |
| 20260507032039 | 9 | 227 | 4.8 | 11.3 | 0.00 | 0.00 | 0.00 | 73 | 1008.0 |
| 20260507031548 | 9 | 234 | 4.8 | 9.7 | 0.00 | 0.00 | 0.00 | 73 | 1008.1 |
| 20260507031038 | 9 | 212 | 4.8 | 11.3 | 0.00 | 0.00 | 0.00 | 73 | 1008.0 |
| 20260507030539 | 9 | 218 | 6.4 | 11.3 | 0.00 | 0.00 | 0.00 | 73 | 1008.1 |
| 20260507030051 | 9 | 220 | 4.8 | 12.9 | 0.00 | 0.00 | 0.00 | 73 | 1008.2 |
| 20260507025538 | 9 | 219 | 4.8 | 12.9 | 0.00 | 0.00 | 0.00 | 73 | 1008.2 |
| 20260507025040 | 9 | 202 | 6.4 | 14.5 | 0.00 | 0.00 | 0.00 | 73 | 1008.2 |
| 20260507024553 | 9 | 207 | 6.4 | 14.5 | 0.00 | 0.00 | 0.00 | 73 | 1008.1 |
| 20260507024037 | 9 | 186 | 6.4 | 12.9 | 0.00 | 0.00 | 0.00 | 73 | 1008.1 |
| 20260507023537 | 9 | 211 | 4.8 | 9.7 | 0.00 | 0.00 | 0.00 | 73 | 1008.0 |
| 20260507023102 | 9 | 194 | 3.2 | 9.7 | 0.00 | 0.00 | 0.00 | 73 | 1008.1 |
| 20260507022538 | 10 | 202 | 6.4 | 11.3 | 0.00 | 0.00 | 0.00 | 72 | 1008.0 |
| 20260507022038 | 10 | 202 | 4.8 | 11.3 | 0.00 | 0.00 | 0.00 | 72 | 1008.0 |
| 20260507021549 | 10 | 219 | 6.4 | 11.3 | 0.00 | 0.00 | 0.00 | 71 | 1008.0 |
| 20260507021037 | 10 | 240 | 4.8 | 11.3 | 0.00 | 0.00 | 0.00 | 70 | 1008.0 |
| 20260507020538 | 10 | 240 | 4.8 | 11.3 | 0.00 | 0.00 | 0.00 | 70 | 1008.1 |
| 20260507020056 | 10 | 202 | 4.8 | 12.9 | 0.00 | 0.00 | 0.00 | 69 | 1008.0 |
| 20260507015538 | 10 | 207 | 6.4 | 14.5 | 0.00 | 0.00 | 0.00 | 69 | 1008.1 |
| 20260507015038 | 10 | 230 | 6.4 | 16.1 | 0.00 | 0.00 | 0.00 | 69 | 1008.0 |
| 20260507014549 | 10 | 224 | 9.7 | 16.1 | 0.00 | 0.00 | 0.00 | 69 | 1008.0 |
| 20260507014038 | 10 | 213 | 8.0 | 20.9 | 0.00 | 0.00 | 0.00 | 69 | 1008.0 |
| 20260507013538 | 10 | 219 | 9.7 | 20.9 | 0.00 | 0.00 | 0.00 | 68 | 1008.1 |
| 20260507013049 | 10 | 212 | 12.9 | 20.9 | 0.00 | 0.00 | 0.00 | 68 | 1007.9 |
| 20260507012542 | 10 | 219 | 14.5 | 22.5 | 0.00 | 0.00 | 0.00 | 68 | 1007.9 |
| 20260507012038 | 10 | 197 | 14.5 | 22.5 | 0.00 | 0.00 | 0.00 | 67 | 1007.9 |
| 20260507011550 | 10 | 212 | 14.5 | 22.5 | 0.00 | 0.00 | 0.00 | 68 | 1007.8 |
| 20260507011038 | 10 | 207 | 14.5 | 25.7 | 0.00 | 0.00 | 0.00 | 67 | 1008.0 |
| 20260507010538 | 10 | 182 | 12.9 | 25.7 | 0.00 | 0.00 | 0.00 | 67 | 1008.0 |
| 20260507010050 | 10 | 180 | 12.9 | 22.5 | 0.00 | 0.00 | 0.00 | 67 | 1008.0 |
| 20260507005537 | 10 | 207 | 11.3 | 22.5 | 0.00 | 0.00 | 0.00 | 68 | 1008.0 |
| 20260507005037 | 10 | 217 | 12.9 | 24.1 | 0.00 | 0.00 | 0.00 | 68 | 1007.9 |
| 20260507004550 | 10 | 197 | 12.9 | 25.7 | 0.00 | 0.00 | 0.00 | 68 | 1007.7 |
| 20260507004038 | 10 | 197 | 16.1 | 25.7 | 0.00 | 0.00 | 0.00 | 67 | 1007.7 |
| 20260507003538 | 10 | 213 | 17.7 | 27.4 | 0.00 | 0.00 | 0.00 | 65 | 1007.7 |
| 20260507003056 | 10 | 207 | 17.7 | 27.4 | 0.00 | 0.00 | 0.00 | 65 | 1007.7 |
| 20260507002540 | 10 | 207 | 16.1 | 27.4 | 0.00 | 0.00 | 0.00 | 65 | 1007.6 |
| 20260507002038 | 10 | 202 | 19.3 | 27.4 | 0.00 | 0.00 | 0.00 | 65 | 1007.6 |
| 20260507001610 | 10 | 215 | 16.1 | 24.1 | 0.00 | 0.00 | 0.00 | 65 | 1007.6 |
| 20260507001038 | 10 | 219 | 14.5 | 30.6 | 0.00 | 0.00 | 0.00 | 65 | 1007.5 |
| 20260507000543 | 10 | 213 | 19.3 | 30.6 | 0.00 | 0.00 | 0.00 | 65 | 1007.4 |
| 20260507000051 | 10 | 192 | 19.3 | 30.6 | 0.00 | 0.00 | 0.00 | 65 | 1007.5 |
| 20260506235540 | 10 | 197 | 20.9 | 30.6 | 0.00 | 0.00 | 0.00 | 64 | 1007.3 |
| 20260506235038 | 10 | 194 | 16.1 | 25.7 | 0.00 | 0.00 | 0.00 | 64 | 1007.3 |
| 20260506234554 | 10 | 202 | 16.1 | 30.6 | 0.00 | 0.00 | 0.00 | 64 | 1007.3 |
| 20260506234039 | 10 | 207 | 19.3 | 30.6 | 0.00 | 0.00 | 0.00 | 63 | 1007.1 |
| 20260506233539 | 10 | 197 | 17.7 | 32.2 | 0.00 | 0.00 | 0.00 | 63 | 1007.1 |
| 20260506233047 | 10 | 188 | 20.9 | 32.2 | 0.00 | 0.00 | 0.00 | 63 | 1007.0 |
| 20260506232539 | 10 | 197 | 16.1 | 25.7 | 0.00 | 0.00 | 0.00 | 62 | 1007.1 |
| 20260506232038 | 11 | 167 | 12.9 | 30.6 | 0.00 | 0.00 | 0.00 | 62 | 1006.9 |
| 20260506231554 | 11 | 213 | 19.3 | 30.6 | 0.00 | 0.00 | 0.00 | 62 | 1006.9 |
| 20260506231037 | 11 | 207 | 20.9 | 30.6 | 0.00 | 0.00 | 0.00 | 61 | 1006.8 |
| 20260506230535 | 11 | 177 | 17.7 | 29.0 | 0.00 | 0.00 | 0.00 | 62 | 1006.7 |
| 20260506230055 | 11 | 191 | 14.5 | 29.0 | 0.00 | 0.00 | 0.00 | 62 | 1007.0 |
| 20260506225539 | 11 | 213 | 20.9 | 29.0 | 0.00 | 0.00 | 0.00 | 61 | 1007.1 |
| 20260506225039 | 11 | 190 | 17.7 | 29.0 | 0.00 | 0.00 | 0.00 | 61 | 1006.8 |
| 20260506224543 | 11 | 202 | 12.9 | 25.7 | 0.00 | 0.00 | 0.00 | 61 | 1006.9 |
| 20260506224035 | 11 | 218 | 17.7 | 25.7 | 0.00 | 0.00 | 0.00 | 60 | 1006.9 |
| 20260506223535 | 11 | 182 | 17.7 | 25.7 | 0.00 | 0.00 | 0.00 | 60 | 1006.9 |
| 20260506223040 | 11 | 207 | 14.5 | 24.1 | 0.00 | 0.00 | 0.00 | 60 | 1007.0 |
| 20260506222538 | 11 | 217 | 12.9 | 24.1 | 0.00 | 0.00 | 0.00 | 60 | 1007.0 |
| 20260506222038 | 11 | 224 | 16.1 | 22.5 | 0.00 | 0.00 | 0.00 | 59 | 1006.9 |
| 20260506221604 | 11 | 202 | 14.5 | 27.4 | 0.00 | 0.00 | 0.00 | 59 | 1006.9 |
| 20260506221035 | 11 | 236 | 16.1 | 27.4 | 0.00 | 0.00 | 0.00 | 59 | 1006.8 |
| 20260506220535 | 11 | 197 | 17.7 | 27.4 | 0.00 | 0.00 | 0.00 | 58 | 1006.7 |
| 20260506220049 | 11 | 192 | 16.1 | 27.4 | 0.00 | 0.00 | 0.00 | 58 | 1006.7 |
| 20260506215539 | 11 | 217 | 19.3 | 27.4 | 0.00 | 0.00 | 0.00 | 58 | 1006.6 |
| 20260506215035 | 11 | 185 | 16.1 | 25.7 | 0.00 | 0.00 | 0.00 | 58 | 1006.8 |
| 20260506214551 | 11 | 197 | 17.7 | 29.0 | 0.00 | 0.00 | 0.00 | 57 | 1006.7 |
| 20260506214034 | 11 | 202 | 19.3 | 29.0 | 0.00 | 0.00 | 0.00 | 56 | 1006.7 |
| 20260506213535 | 12 | 191 | 19.3 | 29.0 | 0.00 | 0.00 | 0.00 | 56 | 1006.6 |
| 20260506213043 | 12 | 197 | 14.5 | 25.7 | 0.00 | 0.00 | 0.00 | 56 | 1006.6 |
| 20260506212538 | 12 | 194 | 19.3 | 27.4 | 0.00 | 0.00 | 0.00 | 55 | 1006.8 |
| 20260506212036 | 12 | 202 | 17.7 | 27.4 | 0.00 | 0.00 | 0.00 | 54 | 1006.7 |
| 20260506211542 | 12 | 197 | 17.7 | 27.4 | 0.00 | 0.00 | 0.00 | 55 | 1006.9 |
| 20260506211036 | 12 | 181 | 14.5 | 27.4 | 0.00 | 0.00 | 0.00 | 54 | 1006.7 |
| 20260506210538 | 12 | 169 | 14.5 | 27.4 | 0.00 | 0.00 | 0.00 | 54 | 1006.8 |
| 20260506210051 | 12 | 190 | 16.1 | 22.5 | 0.00 | 0.00 | 0.00 | 53 | 1006.7 |
| 20260506205535 | 12 | 197 | 14.5 | 22.5 | 0.00 | 0.00 | 0.00 | 53 | 1006.6 |
| 20260506205036 | 12 | 202 | 14.5 | 25.7 | 0.00 | 0.00 | 0.00 | 55 | 1006.6 |
| 20260506204545 | 12 | 189 | 16.1 | 25.7 | 0.00 | 0.00 | 0.00 | 53 | 1006.6 |
| 20260506204035 | 12 | 183 | 14.5 | 25.7 | 0.00 | 0.00 | 0.00 | 53 | 1006.6 |
| 20260506203535 | 12 | 222 | 11.3 | 20.9 | 0.00 | 0.00 | 0.00 | 54 | 1006.6 |
| 20260506203045 | 12 | 166 | 12.9 | 24.1 | 0.00 | 0.00 | 0.00 | 53 | 1006.6 |
| 20260506202538 | 12 | 155 | 14.5 | 24.1 | 0.00 | 0.00 | 0.00 | 53 | 1006.4 |
| 20260506202034 | 12 | 169 | 11.3 | 24.1 | 0.00 | 0.00 | 0.00 | 52 | 1006.5 |
| 20260506201544 | 12 | 172 | 14.5 | 22.5 | 0.00 | 0.00 | 0.00 | 54 | 1006.7 |
| 20260506201035 | 11 | 223 | 14.5 | 25.7 | 0.00 | 0.00 | 0.00 | 54 | 1006.6 |
| 20260506200537 | 11 | 165 | 16.1 | 35.4 | 0.00 | 0.00 | 0.00 | 55 | 1006.6 |
| 20260506200042 | 11 | 194 | 20.9 | 35.4 | 0.00 | 0.00 | 0.00 | 55 | 1006.8 |
| 20260506195535 | 11 | 167 | 12.9 | 20.9 | 0.00 | 0.00 | 0.00 | 55 | 1006.8 |
| 20260506195038 | 11 | 159 | 11.3 | 25.7 | 0.00 | 0.00 | 0.00 | 56 | 1007.0 |
| 20260506194550 | 11 | 179 | 17.7 | 25.7 | 0.00 | 0.00 | 0.00 | 54 | 1006.9 |
| 20260506194035 | 11 | 163 | 12.9 | 24.1 | 0.00 | 0.00 | 0.00 | 54 | 1007.0 |
| 20260506193536 | 11 | 222 | 11.3 | 24.1 | 0.00 | 0.00 | 0.00 | 56 | 1007.2 |
| 20260506193049 | 11 | 197 | 11.3 | 24.1 | 0.00 | 0.00 | 0.00 | 57 | 1007.2 |
| 20260506192534 | 11 | 161 | 12.9 | 22.5 | 0.00 | 0.00 | 0.00 | 56 | 1007.2 |
| 20260506192036 | 11 | 207 | 11.3 | 22.5 | 0.00 | 0.00 | 0.00 | 57 | 1007.2 |
| 20260506191549 | 11 | 197 | 8.0 | 24.1 | 0.00 | 0.00 | 0.00 | 57 | 1007.2 |
| 20260506191038 | 11 | 207 | 16.1 | 33.8 | 0.00 | 0.00 | 0.00 | 57 | 1007.1 |
| 20260506190536 | 10 | 172 | 16.1 | 33.8 | 0.00 | 0.00 | 0.00 | 61 | 1007.2 |
| 20260506190049 | 10 | 161 | 19.3 | 27.4 | 0.00 | 0.00 | 0.00 | 60 | 1007.1 |
| 20260506185542 | 10 | 172 | 17.7 | 25.7 | 0.00 | 0.00 | 0.00 | 61 | 1007.2 |
| 20260506185038 | 10 | 165 | 9.7 | 20.9 | 0.00 | 0.00 | 0.00 | 58 | 1007.2 |
| 20260506184548 | 10 | 187 | 12.9 | 24.1 | 0.00 | 0.00 | 0.00 | 61 | 1007.2 |
| 20260506184038 | 10 | 215 | 12.9 | 24.1 | 0.00 | 0.00 | 0.00 | 62 | 1007.2 |
| 20260506183540 | 10 | 167 | 17.7 | 24.1 | 0.00 | 0.00 | 0.00 | 62 | 1007.3 |
| 20260506183053 | 10 | 180 | 14.5 | 22.5 | 0.00 | 0.00 | 0.00 | 61 | 1007.3 |
| 20260506182537 | 10 | 214 | 12.9 | 22.5 | 0.00 | 0.00 | 0.00 | 62 | 1007.4 |
| 20260506182038 | 10 | 202 | 12.9 | 22.5 | 0.00 | 0.00 | 0.00 | 62 | 1007.5 |
| 20260506181549 | 10 | 166 | 9.7 | 22.5 | 0.00 | 0.00 | 0.00 | 63 | 1007.6 |
| 20260506181037 | 10 | 184 | 14.5 | 22.5 | 0.00 | 0.00 | 0.00 | 64 | 1007.6 |
| 20260506180538 | 10 | 153 | 9.7 | 22.5 | 0.00 | 0.00 | 0.00 | 65 | 1007.6 |
| 20260506180040 | 9 | 231 | 8.0 | 22.5 | 0.00 | 0.00 | 0.00 | 65 | 1007.6 |
| 20260506175538 | 9 | 184 | 12.9 | 22.5 | 0.00 | 0.00 | 0.00 | 64 | 1007.7 |
| 20260506175039 | 9 | 188 | 12.9 | 19.3 | 0.00 | 0.00 | 0.00 | 64 | 1007.9 |
| 20260506174548 | 9 | 191 | 9.7 | 17.7 | 0.00 | 0.00 | 0.00 | 64 | 1007.9 |
| 20260506174036 | 9 | 197 | 4.8 | 20.9 | 0.00 | 0.00 | 0.00 | 65 | 1007.9 |
| 20260506173538 | 9 | 227 | 14.5 | 20.9 | 0.00 | 0.00 | 0.00 | 66 | 1008.2 |
| 20260506173057 | 9 | 214 | 8.0 | 20.9 | 0.00 | 0.00 | 0.00 | 67 | 1008.2 |
| 20260506172538 | 9 | 221 | 14.5 | 20.9 | 0.00 | 0.00 | 0.00 | 68 | 1008.2 |
| 20260506172038 | 9 | 187 | 11.3 | 19.3 | 0.00 | 0.00 | 0.00 | 67 | 1008.2 |
| 20260506171544 | 9 | 219 | 11.3 | 17.7 | 0.00 | 0.00 | 0.00 | 66 | 1008.2 |
| 20260506171038 | 8 | 224 | 11.3 | 17.7 | 0.00 | 0.00 | 0.00 | 66 | 1008.2 |
| 20260506170538 | 8 | 211 | 6.4 | 17.7 | 0.00 | 0.00 | 0.00 | 66 | 1008.1 |
| 20260506170047 | 8 | 221 | 11.3 | 17.7 | 0.00 | 0.00 | 0.00 | 66 | 1008.2 |
| 20260506165534 | 8 | 172 | 8.0 | 14.5 | 0.00 | 0.00 | 0.00 | 66 | 1008.1 |
| 20260506165037 | 8 | 190 | 6.4 | 16.1 | 0.00 | 0.00 | 0.00 | 67 | 1008.3 |
| 20260506164601 | 8 | 207 | 8.0 | 16.1 | 0.00 | 0.00 | 0.00 | 67 | 1008.4 |
| 20260506164035 | 8 | 188 | 9.7 | 16.1 | 0.00 | 0.00 | 0.00 | 67 | 1008.3 |
| 20260506163537 | 8 | 169 | 4.8 | 19.3 | 0.00 | 0.00 | 0.00 | 67 | 1008.4 |
| 20260506163056 | 8 | 197 | 11.3 | 20.9 | 0.00 | 0.00 | 0.00 | 66 | 1008.5 |
| 20260506162537 | 8 | 189 | 12.9 | 20.9 | 0.00 | 0.00 | 0.00 | 67 | 1008.5 |
| 20260506162041 | 8 | 173 | 11.3 | 19.3 | 0.00 | 0.00 | 0.00 | 67 | 1008.3 |
| 20260506161546 | 8 | 159 | 12.9 | 19.3 | 0.00 | 0.00 | 0.00 | 67 | 1008.3 |
| 20260506161038 | 8 | 184 | 9.7 | 16.1 | 0.00 | 0.00 | 0.00 | 65 | 1008.3 |
| 20260506160540 | 8 | 179 | 11.3 | 16.1 | 0.00 | 0.00 | 0.00 | 65 | 1008.5 |
| 20260506160056 | 8 | 225 | 8.0 | 17.7 | 0.00 | 0.00 | 0.00 | 65 | 1008.5 |
| 20260506155538 | 8 | 182 | 8.0 | 17.7 | 0.00 | 0.00 | 0.00 | 65 | 1008.4 |
| 20260506155038 | 8 | 217 | 11.3 | 17.7 | 0.00 | 0.00 | 0.00 | 65 | 1008.5 |
| 20260506154547 | 8 | 219 | 9.7 | 16.1 | 0.00 | 0.00 | 0.00 | 66 | 1008.4 |
| 20260506154037 | 8 | 173 | 9.7 | 17.7 | 0.00 | 0.00 | 0.00 | 65 | 1008.5 |
| 20260506153541 | 8 | 172 | 9.7 | 17.7 | 0.00 | 0.00 | 0.00 | 65 | 1008.6 |
| 20260506153048 | 8 | 188 | 9.7 | 16.1 | 0.00 | 0.00 | 0.00 | 66 | 1008.5 |
| 20260506152538 | 8 | 169 | 1.6 | 14.5 | 0.00 | 0.00 | 0.00 | 65 | 1008.5 |
| 20260506152037 | 8 | 0 | 4.8 | 14.5 | 0.00 | 0.00 | 0.00 | 65 | 1008.6 |
| 20260506151553 | 8 | 225 | 9.7 | 14.5 | 0.00 | 0.00 | 0.00 | 67 | 1008.7 |
| 20260506151038 | 8 | 151 | 8.0 | 16.1 | 0.00 | 0.00 | 0.00 | 68 | 1008.6 |
| 20260506150539 | 8 | 197 | 4.8 | 19.3 | 0.00 | 0.00 | 0.00 | 68 | 1008.6 |
| 20260506150100 | 8 | 188 | 9.7 | 19.3 | 0.00 | 0.00 | 0.00 | 67 | 1008.7 |
| 20260506145538 | 8 | 194 | 11.3 | 19.3 | 0.00 | 0.00 | 0.00 | 69 | 1008.8 |
| 20260506145038 | 8 | 211 | 12.9 | 19.3 | 0.00 | 0.00 | 0.00 | 70 | 1008.7 |
| 20260506144547 | 8 | 217 | 11.3 | 20.9 | 0.00 | 0.00 | 0.00 | 70 | 1008.7 |
| 20260506144038 | 8 | 202 | 11.3 | 20.9 | 0.00 | 0.00 | 0.00 | 70 | 1008.7 |
| 20260506143538 | 8 | 173 | 12.9 | 19.3 | 0.00 | 0.00 | 0.00 | 69 | 1008.7 |
| 20260506143046 | 8 | 186 | 12.9 | 19.3 | 0.00 | 0.00 | 0.00 | 68 | 1008.7 |
| 20260506142538 | 8 | 220 | 11.3 | 20.9 | 0.00 | 0.00 | 0.00 | 69 | 1008.8 |
| 20260506142035 | 8 | 219 | 11.3 | 20.9 | 0.00 | 0.00 | 0.00 | 68 | 1008.7 |
| 20260506141549 | 8 | 189 | 14.5 | 20.9 | 0.00 | 0.00 | 0.00 | 68 | 1008.6 |
| 20260506141037 | 8 | 163 | 11.3 | 17.7 | 0.00 | 0.00 | 0.00 | 66 | 1008.5 |
| 20260506140539 | 8 | 207 | 9.7 | 16.1 | 0.00 | 0.00 | 0.00 | 65 | 1008.5 |
| 20260506140048 | 8 | 170 | 9.7 | 17.7 | 0.00 | 0.00 | 0.00 | 64 | 1008.5 |
| 20260506135539 | 8 | 164 | 9.7 | 19.3 | 0.00 | 0.00 | 0.00 | 65 | 1008.5 |
| 20260506135038 | 8 | 184 | 12.9 | 19.3 | 0.00 | 0.00 | 0.00 | 64 | 1008.4 |
| 20260506134544 | 8 | 182 | 12.9 | 19.3 | 0.00 | 0.00 | 0.00 | 64 | 1008.6 |
| 20260506134040 | 8 | 214 | 11.3 | 16.1 | 0.00 | 0.00 | 0.00 | 66 | 1008.5 |
| 20260506133537 | 8 | 190 | 8.0 | 16.1 | 0.00 | 0.00 | 0.00 | 67 | 1008.5 |
| 20260506133101 | 8 | 163 | 6.4 | 16.1 | 0.00 | 0.00 | 0.00 | 67 | 1008.4 |
| 20260506132538 | 8 | 197 | 8.0 | 16.1 | 0.00 | 0.00 | 0.00 | 66 | 1008.5 |
| 20260506132041 | 8 | 175 | 11.3 | 16.1 | 0.00 | 0.00 | 0.00 | 65 | 1008.5 |
| 20260506131547 | 8 | 194 | 6.4 | 14.5 | 0.00 | 0.00 | 0.00 | 63 | 1008.6 |
| 20260506131038 | 8 | 161 | 4.8 | 14.5 | 0.00 | 0.00 | 0.00 | 62 | 1008.6 |
| 20260506130536 | 8 | 151 | 9.7 | 14.5 | 0.00 | 0.00 | 0.00 | 61 | 1008.5 |
| 20260506130049 | 8 | 162 | 8.0 | 12.9 | 0.00 | 0.00 | 0.00 | 60 | 1008.4 |
| 20260506125537 | 8 | 154 | 6.4 | 12.9 | 0.00 | 0.00 | 0.00 | 59 | 1008.5 |
| 20260506125037 | 8 | 164 | 4.8 | 11.3 | 0.00 | 0.00 | 0.00 | 59 | 1008.5 |
| 20260506124548 | 8 | 169 | 6.4 | 20.9 | 0.00 | 0.00 | 0.00 | 58 | 1008.7 |
| 20260506124037 | 8 | 142 | 11.3 | 20.9 | 0.00 | 0.00 | 0.00 | 57 | 1008.5 |
| 20260506123542 | 8 | 135 | 12.9 | 19.3 | 0.00 | 0.00 | 0.00 | 56 | 1008.4 |
| 20260506123049 | 8 | 157 | 12.9 | 19.3 | 0.00 | 0.00 | 0.00 | 58 | 1008.4 |
| 20260506122540 | 8 | 173 | 11.3 | 17.7 | 0.00 | 0.00 | 0.00 | 63 | 1008.3 |
| 20260506122038 | 8 | 145 | 12.9 | 17.7 | 0.00 | 0.00 | 0.00 | 62 | 1008.5 |
| 20260506121554 | 8 | 163 | 4.8 | 8.0 | 0.00 | 0.00 | 0.00 | 57 | 1008.6 |
| 20260506121038 | 8 | 184 | 1.6 | 4.8 | 0.00 | 0.00 | 0.00 | 57 | 1008.5 |
| 20260506120538 | 8 | 184 | 0.0 | 4.8 | 0.00 | 0.00 | 0.00 | 58 | 1008.5 |
| 20260506120101 | 8 | 184 | 1.6 | 4.8 | 0.00 | 0.00 | 0.00 | 58 | 1008.5 |
| 20260506115538 | 8 | 0 | 0.0 | 0.0 | 0.00 | 0.00 | 0.00 | 61 | 1008.5 |
| 20260506115037 | 8 | 0 | 0.0 | 1.6 | 0.00 | 0.00 | 0.00 | 63 | 1008.5 |
| 20260506114550 | 8 | 0 | 0.0 | 1.6 | 0.00 | 0.00 | 0.00 | 62 | 1008.6 |
| 20260506114035 | 8 | 0 | 0.0 | 0.0 | 0.00 | 0.00 | 0.00 | 63 | 1008.6 |
| 20260506113535 | 8 | 0 | 0.0 | 0.0 | 0.00 | 0.00 | 0.00 | 64 | 1008.6 |
| 20260506113048 | 8 | 0 | 0.0 | 3.2 | 0.00 | 0.00 | 0.00 | 64 | 1008.4 |
| 20260506112540 | 8 | 0 | 0.0 | 3.2 | 0.00 | 0.00 | 0.00 | 64 | 1008.4 |
| 20260506112038 | 8 | 0 | 0.0 | 0.0 | 0.00 | 0.00 | 0.00 | 64 | 1008.4 |
| 20260506111550 | 8 | 0 | 0.0 | 0.0 | 0.00 | 0.00 | 0.00 | 65 | 1008.3 |
| 20260506111038 | 8 | 0 | 0.0 | 0.0 | 0.00 | 0.00 | 0.00 | 64 | 1008.3 |
| 20260506110538 | 8 | 0 | 0.0 | 0.0 | 0.00 | 0.00 | 0.00 | 64 | 1008.3 |
| 20260506110058 | 8 | 0 | 0.0 | 0.0 | 0.00 | 0.00 | 0.00 | 64 | 1008.3 |
| 20260506105538 | 8 | 0 | 0.0 | 0.0 | 0.00 | 0.00 | 0.00 | 64 | 1008.3 |
| 20260506105039 | 8 | 0 | 0.0 | 3.2 | 0.00 | 0.00 | 0.00 | 62 | 1008.3 |
| 20260506104603 | 8 | 0 | 0.0 | 3.2 | 0.00 | 0.00 | 0.00 | 62 | 1008.2 |
| 20260506104038 | 8 | 184 | 1.6 | 6.4 | 0.00 | 0.00 | 0.00 | 61 | 1008.2 |
| 20260506103538 | 8 | 0 | 1.6 | 6.4 | 0.00 | 0.00 | 0.00 | 61 | 1008.3 |
| 20260506103049 | 8 | 182 | 3.2 | 6.4 | 0.00 | 0.00 | 0.00 | 61 | 1008.2 |
| 20260506102538 | 8 | 182 | 3.2 | 6.4 | 0.00 | 0.00 | 0.00 | 61 | 1008.3 |
| 20260506102040 | 8 | 185 | 3.2 | 4.8 | 0.00 | 0.00 | 0.00 | 61 | 1008.3 |
| 20260506101554 | 8 | 243 | 1.6 | 3.2 | 0.00 | 0.00 | 0.00 | 61 | 1008.3 |
| 20260506101037 | 8 | 0 | 0.0 | 3.2 | 0.00 | 0.00 | 0.00 | 61 | 1008.5 |
| 20260506100538 | 8 | 243 | 1.6 | 4.8 | 0.00 | 0.00 | 0.00 | 61 | 1008.5 |
| 20260506100053 | 8 | 243 | 1.6 | 4.8 | 0.00 | 0.00 | 0.00 | 62 | 1008.5 |
| 20260506095538 | 8 | 0 | 0.0 | 6.4 | 0.00 | 0.00 | 0.00 | 61 | 1008.6 |
| 20260506095039 | 8 | 255 | 1.6 | 8.0 | 0.00 | 0.00 | 0.00 | 60 | 1008.8 |
| 20260506094600 | 8 | 219 | 1.6 | 8.0 | 0.00 | 0.00 | 0.00 | 60 | 1008.6 |
| 20260506094040 | 8 | 218 | 3.2 | 9.7 | 0.00 | 0.00 | 0.00 | 60 | 1008.4 |
| 20260506093538 | 8 | 202 | 4.8 | 9.7 | 0.00 | 0.00 | 0.00 | 59 | 1008.2 |
| 20260506093050 | 8 | 207 | 3.2 | 6.4 | 0.00 | 0.00 | 0.00 | 59 | 1008.2 |
| 20260506092538 | 8 | 221 | 3.2 | 6.4 | 0.00 | 0.00 | 0.00 | 59 | 1008.2 |
| 20260506092038 | 8 | 221 | 3.2 | 6.4 | 0.00 | 0.00 | 0.00 | 59 | 1008.2 |
| 20260506091549 | 8 | 232 | 1.6 | 6.4 | 0.00 | 0.00 | 0.00 | 59 | 1008.2 |
| 20260506091038 | 8 | 219 | 1.6 | 6.4 | 0.00 | 0.00 | 0.00 | 58 | 1008.0 |
| 20260506090537 | 8 | 219 | 3.2 | 8.0 | 0.00 | 0.00 | 0.00 | 57 | 1008.1 |
| 20260506090053 | 8 | 213 | 4.8 | 8.0 | 0.00 | 0.00 | 0.00 | 57 | 1008.1 |
| 20260506085538 | 8 | 211 | 3.2 | 6.4 | 0.00 | 0.00 | 0.00 | 57 | 1008.2 |
| 20260506085038 | 8 | 222 | 3.2 | 6.4 | 0.00 | 0.00 | 0.00 | 58 | 1008.1 |
| 20260506084618 | 8 | 228 | 1.6 | 6.4 | 0.00 | 0.00 | 0.00 | 57 | 1008.1 |
| 20260506084038 | 8 | 233 | 1.6 | 6.4 | 0.00 | 0.00 | 0.00 | 57 | 1008.1 |
| 20260506083538 | 8 | 0 | 0.0 | 6.4 | 0.00 | 0.00 | 0.00 | 57 | 1008.3 |
| 20260506083053 | 8 | 261 | 0.0 | 6.4 | 0.00 | 0.00 | 0.00 | 57 | 1008.4 |
| 20260506082535 | 8 | 255 | 1.6 | 4.8 | 0.00 | 0.00 | 0.00 | 58 | 1008.4 |
| 20260506082039 | 8 | 259 | 0.0 | 4.8 | 0.00 | 0.00 | 0.00 | 58 | 1008.4 |
| 20260506081555 | 8 | 0 | 0.0 | 3.2 | 0.00 | 0.00 | 0.00 | 58 | 1008.3 |
| 20260506081038 | 8 | 0 | 0.0 | 3.2 | 0.00 | 0.00 | 0.00 | 59 | 1008.2 |
| 20260506080538 | 8 | 226 | 0.0 | 4.8 | 0.00 | 0.00 | 0.00 | 58 | 1008.1 |
| 20260506073101 | 8 | 226 | 3.2 | 6.4 | 0.00 | 0.00 | 0.00 | 55 | 1008.3 |
| 20260506072539 | 8 | 226 | 1.6 | 6.4 | 0.00 | 0.00 | 0.00 | 56 | 1008.3 |
| 20260506072039 | 8 | 228 | 3.2 | 8.0 | 0.00 | 0.00 | 0.00 | 54 | 1008.3 |
| 20260506071549 | 8 | 0 | 3.2 | 8.0 | 0.00 | 0.00 | 0.00 | 54 | 1008.4 |
| 20260506071038 | 8 | 228 | 1.6 | 8.0 | 0.00 | 0.00 | 0.00 | 54 | 1008.4 |
| 20260506070538 | 8 | 226 | 3.2 | 8.0 | 0.00 | 0.00 | 0.00 | 54 | 1008.4 |
| 20260506062039 | 9 | 227 | 3.2 | 12.9 | 0.00 | 0.00 | 0.00 | 53 | 1008.2 |
| 20260506061546 | 9 | 227 | 3.2 | 8.0 | 0.00 | 0.00 | 0.00 | 53 | 1008.2 |
| 20260506061039 | 9 | 230 | 1.6 | 8.0 | 0.00 | 0.00 | 0.00 | 53 | 1008.2 |
| 20260506060537 | 9 | 0 | 1.6 | 8.0 | 0.00 | 0.00 | 0.00 | 53 | 1008.2 |